Weather History for Erzurum, Turkey

Change the Weather History Date:

Wednesday, February 6, 2013

  Actual Average Record
Temperature  
Mean Temperature 10 °F -  
Max Temperature 29 °F 31 °F 39 °F (1998)
Min Temperature -8 °F 15 °F -29 °F (2012)
Degree Days  
Heating Degree Days 54    
Moisture  
Dew Point 12 °F    
Average Humidity 88    
Maximum Humidity 100    
Minimum Humidity 63    
Precipitation  
Precipitation 0.02 in 0.03 in - ()
Sea Level Pressure  
Sea Level Pressure 30.11 in    
Wind  
Wind Speed 3 mph ()    
Max Wind Speed 15 mph    
Max Gust Speed -    
Visibility 1.9 miles    
Events Fog , Snow    
Averages and records for this station are not official NWS values.
T = Trace of Precipitation, MM = Missing Value Source: Averaged Metar Reports

Daily Weather History Graph

Daily Weather History Graph

Search for Another Location

Airport:

Trip Planner

Search our weather history database for the weather conditions in past years. The results will help you decide how hot, cold, wet, or windy it might be!

Date:

Astronomy

Feb. 06, 2013 Rise Set
Actual Time 6:18 AM EET 4:40 PM EET
Civil Twilight 5:50 AM EET 5:08 PM EET
Nautical Twilight 5:18 AM EET 5:40 PM EET
Astronomical Twilight 4:46 AM EET 6:12 PM EET
Moon 2:40 AM EET (2/6) 12:36 PM EET (2/6)
Length of Visible Light 11h 18m
Length of Day
10h 21m
Waning Crescent, 20% of the Moon is Illuminated
Feb 6
Waning Crescent
Feb 10
New
Feb 17
First Quarter
Feb 25
Full
Mar 4
Last Quarter

Hourly Weather History & Observations

Time (EET) Temp. Windchill Dew Point Humidity Pressure Visibility Wind Dir Wind Speed Gust Speed Precip Events Conditions
12:20 AM -4.0 °F - -5.8 °F 92% 30.18 in 1.3 mi Variable 2.3 mph - N/A   Mist
12:50 AM -2.2 °F - -4.0 °F 92% 30.18 in 0.5 mi Variable 2.3 mph - N/A Fog Light Freezing Fog
1:20 AM -2.2 °F - -4.0 °F 92% 30.18 in 0.5 mi Variable 2.3 mph - N/A Fog Light Freezing Fog
1:50 AM -0.4 °F - -2.2 °F 92% 30.18 in 0.5 mi WSW 1.2 mph - N/A Fog Light Freezing Fog
2:00 AM -0 °F - -0 °F 98%  in 0 mi WSW 1.2 mph - - Fog Fog
2:20 AM -0.4 °F -10.4 °F -2.2 °F 92% 30.18 in 1.0 mi SSE 4.6 mph - N/A   Mist
2:50 AM -0.4 °F - -2.2 °F 92% 30.18 in 1.0 mi Variable 2.3 mph - N/A   Mist
3:20 AM -0.4 °F - -2.2 °F 92% 30.15 in 1.2 mi Variable 2.3 mph - N/A   Mist
3:50 AM 1.4 °F - -2.2 °F 85% 30.15 in 1.2 mi Variable 1.2 mph - N/A   Mist
4:20 AM 1.4 °F - -0.4 °F 92% 30.15 in 1.2 mi NNW 2.3 mph - N/A   Mist
4:50 AM 1.4 °F - -0.4 °F 92% 30.15 in 1.3 mi Variable 2.3 mph - N/A   Mist
5:20 AM 1.4 °F - -0.4 °F 92% 30.18 in 1.3 mi Calm Calm - N/A   Mist
5:50 AM -0.4 °F - -2.2 °F 92% 30.18 in 1.2 mi Variable 1.2 mph - N/A   Mist
6:20 AM -0.4 °F - -2.2 °F 92% 30.18 in 1.5 mi Variable 1.2 mph - N/A   Mist
6:50 AM 1.4 °F - -0.4 °F 92% 30.21 in 1.7 mi Variable 2.3 mph - N/A   Mist
7:20 AM 1.4 °F - -0.4 °F 92% 30.18 in 1.7 mi Variable 2.3 mph - N/A   Mist
7:50 AM 1.4 °F - -0.4 °F 92% 30.18 in 1.7 mi Variable 2.3 mph - N/A   Partly Cloudy
8:00 AM 2 °F - 1 °F 93%  in 2 mi NNE 2.3 mph - -   Mist
8:20 AM 3.2 °F - 1.4 °F 92% 30.18 in - Variable 2.3 mph - N/A   Partly Cloudy
8:50 AM 6.8 °F - 5.0 °F 92% 30.18 in 1.2 mi Variable 1.2 mph - N/A   Partly Cloudy
9:20 AM 8.6 °F 2.0 °F 6.8 °F 92% 30.18 in 1.2 mi Variable 3.5 mph - N/A   Partly Cloudy
9:50 AM 12.2 °F 4.3 °F 10.4 °F 92% 30.18 in 1.9 mi NW 4.6 mph - N/A   Partly Cloudy
10:20 AM 15.8 °F 10.2 °F 14.0 °F 93% 30.15 in - SE 3.5 mph - N/A   Partly Cloudy
10:50 AM 24.8 °F - 17.6 °F 74% 30.15 in - Calm Calm - N/A   Partly Cloudy
11:20 AM 26.6 °F - 17.6 °F 69% 30.12 in - Variable 1.2 mph - N/A   Partly Cloudy
11:50 AM 26.6 °F - 17.6 °F 69% 30.09 in 2.2 mi Variable 2.3 mph - N/A   Partly Cloudy
12:20 PM 24.8 °F 16.9 °F 15.8 °F 69% 30.09 in 2.5 mi North 6.9 mph - N/A   Scattered Clouds
12:50 PM 28.4 °F 17.0 °F 19.4 °F 69% 30.09 in 2.8 mi ENE 15.0 mph - N/A   Scattered Clouds
1:20 PM 30.2 °F 20.2 °F 21.2 °F 69% 30.09 in 2.8 mi East 12.7 mph - N/A   Scattered Clouds
1:50 PM 30.2 °F 25.4 °F 21.2 °F 69% 30.09 in - East 4.6 mph - N/A   Mostly Cloudy
2:00 PM 29 °F - 21 °F 63%  in 3 mi East 4.6 mph - -   Mist
2:20 PM 28.4 °F 23.3 °F 19.4 °F 69% 30.09 in - South 4.6 mph - N/A   Mostly Cloudy
2:50 PM 28.4 °F - 21.2 °F 74% 30.09 in - Variable 2.3 mph - N/A   Mostly Cloudy
3:20 PM 26.6 °F 22.6 °F 21.2 °F 80% 30.06 in - West 3.5 mph - N/A   Mostly Cloudy
3:50 PM 26.6 °F 20.0 °F 21.2 °F 80% 30.06 in - NNE 5.8 mph - N/A   Mostly Cloudy
4:20 PM 26.6 °F 22.6 °F 21.2 °F 80% 30.06 in - North 3.5 mph - N/A   Mostly Cloudy
4:50 PM 28.4 °F 22.2 °F 23.0 °F 80% 30.04 in 2.8 mi North 5.8 mph - N/A   Mostly Cloudy
5:20 PM 28.4 °F 22.2 °F 26.6 °F 93% 30.04 in - NNE 5.8 mph - N/A Snow Light Snow
5:50 PM 28.4 °F 22.2 °F 28.4 °F 100% 30.06 in - NW 5.8 mph - N/A Snow Light Snow
6:20 PM 24.8 °F 14.6 °F 23.0 °F 93% 30.06 in - ENE 10.4 mph - N/A Snow Light Snow
6:50 PM 21.2 °F 10.1 °F 21.2 °F 100% 30.06 in 1.7 mi ENE 10.4 mph - N/A Snow Light Snow
7:20 PM 23.0 °F 11.7 °F 23.0 °F 100% 30.04 in 1.8 mi ENE 11.5 mph - N/A Snow Light Snow
7:50 PM 24.8 °F 12.9 °F 23.0 °F 93% 30.01 in 1.8 mi East 13.8 mph - N/A Snow Light Snow
8:00 PM 24 °F - 24 °F 98%  in 12 mi East 13.8 mph - - Snow Light Snow
8:20 PM 24.8 °F 14.0 °F 23.0 °F 93% 30.04 in - ENE 11.5 mph - N/A Snow Light Snow
8:50 PM 24.8 °F 12.9 °F 23.0 °F 93% 30.04 in 1.7 mi ENE 13.8 mph - N/A Snow Light Snow
9:20 PM 24.8 °F 20.5 °F 24.8 °F 100% 30.04 in 1.5 mi ESE 3.5 mph - N/A Snow Light Snow
9:50 PM 24.8 °F - 24.8 °F 100% 30.01 in 1.8 mi Calm Calm - N/A Snow Light Snow
10:20 PM 26.6 °F 20.0 °F 26.6 °F 100% 30.01 in 1.8 mi ESE 5.8 mph - N/A Snow Light Snow
10:50 PM 24.8 °F - 23.0 °F 93% 29.98 in 3.7 mi SE 1.2 mph - N/A Snow Light Snow
11:20 PM 24.8 °F 20.5 °F 24.8 °F 100% 30.01 in 1.6 mi SSE 3.5 mph - N/A Snow Light Snow
11:50 PM 24.8 °F 20.5 °F 24.8 °F 100% 30.01 in 1.6 mi SSW 3.5 mph - N/A Snow Light Snow